This is the latest recevied weather packets stored in our database for station/object XE1GMR. If no packets are shown the sender has not sent any weather packets the latest 10 day(s).
| Time | Temp. | Humidity | Pressure | Rain* | Wind** | Luminosity | Snow |
|---|---|---|---|---|---|---|---|
| 1777679671 | 27.78° C | 37% | 1116.2 hPa | 0 mm | - | 67 W/m² | - |
| 1777679366 | 27.78° C | 37% | 1116.1 hPa | 0 mm | - | 68 W/m² | - |
| 1777679064 | 28.33° C | 37% | 1116.3 hPa | 0 mm | - | 83 W/m² | - |
| 1777678762 | 27.78° C | 36% | 1116.4 hPa | 0 mm | - | 78 W/m² | - |
| 1777678459 | 28.33° C | 36% | 1116.3 hPa | 0 mm | - | 97 W/m² | - |
| 1777678154 | 28.33° C | 36% | 1116.2 hPa | 0 mm | - | 106 W/m² | - |
| 1777677852 | 28.33° C | 35% | 1116.2 hPa | 0 mm | - | 98 W/m² | - |
| 1777677549 | 28.33° C | 35% | 1116 hPa | 0 mm | - | 127 W/m² | - |
| 1777677248 | 28.33° C | 35% | 1116.1 hPa | 0 mm | - | 139 W/m² | - |
| 1777676945 | 28.33° C | 35% | 1116.2 hPa | 0 mm | - | 151 W/m² | - |
| 1777676644 | 28.33° C | 34% | 1116.1 hPa | 0 mm | - | 180 W/m² | - |
| 1777676341 | 28.89° C | 34% | 1115.8 hPa | 0 mm | - | 209 W/m² | - |
| 1777676039 | 28.89° C | 33% | 1116.1 hPa | 0 mm | - | 235 W/m² | - |
| 1777675734 | 29.44° C | 32% | 1115.9 hPa | 0 mm | - | 242 W/m² | - |
| 1777675432 | 28.89° C | 32% | 1115.7 hPa | 0 mm | - | 268 W/m² | - |
| 1777675128 | 29.44° C | 32% | 1115.8 hPa | 0 mm | - | 303 W/m² | - |
| 1777674824 | 29.44° C | 31% | 1115.7 hPa | 0 mm | - | 318 W/m² | - |
| 1777674521 | 28.89° C | 31% | 1115.9 hPa | 0 mm | - | 337 W/m² | - |
| 1777674220 | 28.89° C | 32% | 1115.9 hPa | 0 mm | - | 366 W/m² | - |
| 1777673915 | 28.89° C | 31% | 1115.9 hPa | 0 mm | - | 344 W/m² | - |
| 1777673612 | 28.89° C | 32% | 1115.8 hPa | 0 mm | - | 426 W/m² | - |
| 1777673310 | 29.44° C | 32% | 1115.9 hPa | 0 mm | - | 461 W/m² | - |
| 1777673007 | 30° C | 32% | 1116.2 hPa | 0 mm | - | 507 W/m² | - |
| 1777672703 | 30° C | 33% | 1116.1 hPa | 0 mm | - | 512 W/m² | - |
| 1777672399 | 29.44° C | 32% | 1115.9 hPa | 0 mm | - | 487 W/m² | - |
* Rain latest hour (hover to see other rain measurements)
** Current wind speed in m/s (hover to see current wind gust speed)